QPF
0.03 0.04 0.03 0.02 0.02 0.04 0.04 0.05 0.06 0.03 0.01 0.01 0.02 0.01 0.01 0.00 0.01 0.01 0.01 0.01 0.01 0.02 0.02 0.02 0.02 0.02 0.02 0.02 0.02 0.02 0.02 0.02 0.02 0.02 0.02 0.01 0.01 0.02 0.02 0.03 0.03 0.03 0.04
0.04 0.04 0.02 0.02 0.02 0.04 0.04 0.04 0.03 0.01 0.01 0.01 0.01 0.00 0.00 0.00 0.00 0.00 0.00 0.00 0.00 0.00 0.00 0.01 0.01 0.01 0.02 0.02 0.02 0.02 0.02 0.01 0.01 0.02 0.02 0.02 0.02 0.02 0.03 0.03 0.03 0.04 0.05
0.02 0.02 0.02 0.01 0.01 0.02 0.02 0.01 0.01 0.01 0.01 0.00 0.00 0.00 0.00 0.00 0.00 0.00 0.00 0.00 0.00 0.00 0.00 0.00 0.00 0.00 0.00 0.01 0.01 0.01 0.01 0.01 0.01 0.01 0.02 0.03 0.03 0.03 0.03 0.04 0.05 0.06 0.07
0.01 0.01 0.02 0.01 0.01 0.01 0.00 0.00 0.00 0.01 0.00 0.00 0.01 0.01 0.01 0.01 0.01 0.00 0.00 0.00 0.00 0.00 0.00 0.00 0.00 0.00 0.00 0.00 0.00 0.00 0.01 0.01 0.01 0.01 0.01 0.02 0.03 0.04 0.03 0.03 0.04 0.05 0.05
0.01 0.01 0.01 0.00 0.00 0.00 0.00 0.00 0.01 0.01 0.01 0.00 0.01 0.01 0.01 0.01 0.00 0.00 0.00 0.00 0.00 0.00 0.00 0.00 0.00 0.00 0.00 0.00 0.00 0.00 0.01 0.01 0.01 0.01 0.01 0.01 0.02 0.03 0.03 0.03 0.04 0.04 0.04
0.00 0.00 0.00 0.00 0.00 0.00 0.01 0.01 0.02 0.02 0.01 0.00 0.01 0.01 0.01 0.01 0.01 0.00 0.00 0.00 0.00 0.00 0.00 0.00 0.00 0.00 0.00 0.00 0.00 0.00 0.01 0.01 0.01 0.01 0.01 0.01 0.01 0.01 0.02 0.03 0.03 0.04 0.04
0.00 0.00 0.00 0.00 0.00 0.00 0.01 0.01 0.01 0.01 0.01 0.00 0.01 0.01 0.01 0.01 0.01 0.00 0.00 0.00 0.00 0.00 0.00 0.00 0.00 0.00 0.00 0.00 0.00 0.00 0.00 0.01 0.01 0.01 0.01 0.01 0.01 0.01 0.01 0.02 0.02 0.02 0.02
0.00 0.00 0.00 0.00 0.00 0.00 0.00 0.00 0.00 0.00 0.00 0.00 0.00 0.00 0.00 0.00 0.00 0.00 0.00 0.00 0.00 0.00 0.00 0.00 0.00 0.00 0.00 0.00 0.00 0.00 0.00 0.01 0.01 0.01 0.01 0.01 0.01 0.01 0.01 0.01 0.02 0.02 0.02
0.00 0.00 0.00 0.00 0.00 0.00 0.00 0.00 0.00 0.00 0.00 0.00 0.00 0.00 0.00 0.00 0.00 0.00 0.00 0.00 0.00 0.00 0.00 0.00 0.00 0.00 0.00 0.00 0.00 0.01 0.01 0.01 0.01 0.01 0.01 0.01 0.00 0.01 0.01 0.01 0.02 0.03 0.03
0.00 0.00 0.00 0.00 0.00 0.00 0.00 0.00 0.00 0.00 0.00 0.00 0.00 0.00 0.00 0.00 0.00 0.00 0.00 0.00 0.00 0.00 0.00 0.00 0.00 0.00 0.00 0.00 0.01 0.01 0.01 0.01 0.01 0.01 0.01 0.01 0.01 0.01 0.01 0.01 0.02 0.02 0.03
0.00 0.00 0.00 0.00 0.00 0.00 0.00 0.00 0.00 0.00 0.00 0.00 0.00 0.00 0.00 0.00 0.00 0.00 0.00 0.00 0.00 0.00 0.00 0.00 0.00 0.00 0.00 0.01 0.01 0.01 0.01 0.01 0.01 0.01 0.01 0.01 0.01 0.02 0.01 0.01 0.02 0.02 0.03
0.00 0.00 0.00 0.00 0.00 0.00 0.00 0.00 0.00 0.00 0.00 0.00 0.00 0.00 0.00 0.00 0.00 0.00 0.00 0.00 0.00 0.00 0.00 0.00 0.00 0.00 0.00 0.01 0.01 0.01 0.01 0.01 0.01 0.01 0.01 0.01 0.01 0.02 0.02 0.02 0.02 0.02 0.03
0.00 0.00 0.00 0.00 0.00 0.00 0.00 0.00 0.00 0.00 0.00 0.00 0.00 0.00 0.00 0.00 0.00 0.00 0.00 0.00 0.00 0.00 0.00 0.00 0.00 0.00 0.00 0.01 0.01 0.01 0.01 0.01 0.01 0.01 0.01 0.01 0.02 0.02 0.02 0.02 0.02 0.02 0.02
0.00 0.00 0.00 0.00 0.00 0.00 0.00 0.00 0.00 0.00 0.00 0.00 0.00 0.00 0.00 0.00 0.00 0.00 0.00 0.00 0.00 0.00 0.00 0.00 0.00 0.00 0.01 0.01 0.01 0.01 0.01 0.01 0.01 0.01 0.01 0.01 0.02 0.02 0.02 0.02 0.02 0.02 0.03
0.00 0.00 0.00 0.00 0.00 0.00 0.00 0.00 0.00 0.00 0.00 0.00 0.00 0.00 0.00 0.00 0.00 0.00 0.00 0.00 0.00 0.00 0.00 0.00 0.00 0.00 0.00 0.00 0.01 0.01 0.01 0.01 0.02 0.02 0.02 0.01 0.01 0.01 0.02 0.01 0.02 0.03 0.03
0.00 0.00 0.00 0.00 0.00 0.00 0.00 0.00 0.00 0.00 0.00 0.00 0.00 0.00 0.00 0.00 0.00 0.00 0.00 0.00 0.00 0.00 0.00 0.00 0.00 0.00 0.00 0.00 0.00 0.00 0.01 0.01 0.02 0.02 0.02 0.02 0.01 0.01 0.00 0.00 0.00 0.01 0.03
0.00 0.00 0.00 0.00 0.00 0.00 0.00 0.00 0.00 0.00 0.00 0.00 0.00 0.00 0.00 0.00 0.00 0.00 0.00 0.00 0.00 0.00 0.00 0.00 0.00 0.00 0.01 0.00 0.00 0.00 0.00 0.01 0.01 0.02 0.03 0.02 0.01 0.02 0.02 0.02 0.01 0.01 0.00
0.00 0.00 0.00 0.00 0.00 0.00 0.00 0.00 0.00 0.00 0.00 0.00 0.00 0.00 0.00 0.00 0.00 0.00 0.00 0.00 0.00 0.00 0.00 0.00 0.01 0.01 0.01 0.00 0.00 0.00 0.00 0.01 0.01 0.02 0.02 0.03 0.03 0.03 0.03 0.05 0.05 0.04 0.02
0.00 0.00 0.00 0.00 0.00 0.00 0.00 0.00 0.00 0.00 0.00 0.00 0.00 0.00 0.00 0.00 0.00 0.00 0.00 0.00 0.00 0.00 0.00 0.00 0.01 0.01 0.01 0.00 0.00 0.00 0.00 0.01 0.01 0.02 0.02 0.03 0.04 0.03 0.01 0.03 0.05 0.05 0.05
0.00 0.00 0.00 0.00 0.00 0.00 0.00 0.00 0.00 0.00 0.00 0.00 0.00 0.00 0.00 0.00 0.00 0.00 0.00 0.00 0.00 0.00 0.00 0.00 0.01 0.01 0.01 0.00 0.00 0.00 0.00 0.01 0.02 0.03 0.03 0.02 0.02 0.02 0.01 0.03 0.06 0.06 0.06
0.00 0.00 0.00 0.00 0.00 0.00 0.00 0.00 0.00 0.00 0.00 0.00 0.00 0.00 0.00 0.00 0.00 0.00 0.00 0.00 0.00 0.00 0.00 0.01 0.01 0.01 0.01 0.00 0.00 0.00 0.00 0.01 0.02 0.02 0.02 0.04 0.02 0.01 0.01 0.02 0.04 0.05 0.06
0.00 0.00 0.00 0.00 0.00 0.00 0.00 0.00 0.00 0.00 0.00 0.00 0.00 0.00 0.00 0.00 0.00 0.00 0.00 0.00 0.00 0.01 0.01 0.01 0.01 0.01 0.01 0.01 0.00 0.00 0.00 0.00 0.01 0.02 0.03 0.04 0.02 0.02 0.02 0.01 0.01 0.01 0.02
0.00 0.00 0.00 0.00 0.00 0.00 0.00 0.00 0.00 0.00 0.00 0.00 0.00 0.00 0.00 0.00 0.00 0.00 0.00 0.01 0.01 0.01 0.00 0.01 0.01 0.01 0.01 0.01 0.00 0.00 0.00 0.00 0.01 0.02 0.02 0.02 0.02 0.02 0.02 0.02 0.02 0.02 0.02
0.00 0.00 0.00 0.00 0.00 0.00 0.00 0.00 0.00 0.00 0.00 0.00 0.00 0.00 0.00 0.00 0.00 0.00 0.00 0.00 0.01 0.01 0.01 0.01 0.02 0.02 0.02 0.02 0.02 0.02 0.01 0.01 0.01 0.01 0.01 0.01 0.02 0.03 0.04 0.03 0.02 0.03 0.04
0.00 0.00 0.00 0.00 0.00 0.00 0.00 0.00 0.00 0.00 0.00 0.00 0.00 0.00 0.00 0.00 0.00 0.00 0.01 0.00 0.01 0.01 0.00 0.00 0.01 0.01 0.01 0.01 0.01 0.01 0.01 0.01 0.01 0.01 0.02 0.03 0.05 0.05 0.06 0.05 0.06 0.07 0.07
0.00 0.00 0.00 0.00 0.00 0.00 0.00 0.00 0.00 0.00 0.00 0.00 0.00 0.00 0.00 0.00 0.00 0.00 0.00 0.00 0.00 0.00 0.00 0.00 0.00 0.00 0.00 0.00 0.00 0.00 0.00 0.00 0.00 0.01 0.03 0.05 0.06 0.07 0.08 0.08 0.07 0.08 0.09
MSLP
1014.79 1014.71 1014.63 1014.57 1014.54 1014.56 1014.63 1014.75 1014.91 1015.10 1015.29 1015.45 1015.58 1015.66 1015.69 1015.70 1015.70 1015.73 1015.79 1015.90 1016.07 1016.29 1016.53 1016.78 1017.00 1017.17 1017.27 1017.27 1017.19 1017.00 1016.73 1016.39 1015.99 1015.56 1015.11 1014.68 1014.28 1013.92 1013.64 1013.42 1013.28 1013.22 1013.23
1014.93 1014.85 1014.77 1014.70 1014.66 1014.65 1014.70 1014.81 1014.96 1015.16 1015.36 1015.54 1015.69 1015.79 1015.83 1015.83 1015.81 1015.79 1015.82 1015.89 1016.03 1016.23 1016.46 1016.71 1016.94 1017.11 1017.20 1017.19 1017.08 1016.87 1016.58 1016.21 1015.80 1015.37 1014.94 1014.52 1014.14 1013.79 1013.50 1013.26 1013.08 1012.95 1012.90
1014.87 1014.82 1014.76 1014.71 1014.67 1014.67 1014.72 1014.82 1014.99 1015.19 1015.42 1015.63 1015.81 1015.93 1015.99 1015.99 1015.95 1015.92 1015.90 1015.94 1016.04 1016.21 1016.42 1016.64 1016.85 1017.01 1017.08 1017.05 1016.92 1016.68 1016.37 1016.00 1015.59 1015.18 1014.78 1014.39 1014.04 1013.71 1013.42 1013.17 1012.95 1012.78 1012.67
1014.59 1014.59 1014.58 1014.58 1014.58 1014.60 1014.66 1014.79 1014.96 1015.19 1015.45 1015.69 1015.91 1016.06 1016.14 1016.16 1016.13 1016.07 1016.03 1016.03 1016.10 1016.22 1016.38 1016.57 1016.74 1016.86 1016.90 1016.84 1016.68 1016.44 1016.11 1015.74 1015.35 1014.97 1014.60 1014.26 1013.94 1013.65 1013.37 1013.12 1012.88 1012.68 1012.51
1014.13 1014.20 1014.26 1014.32 1014.38 1014.45 1014.55 1014.69 1014.89 1015.14 1015.42 1015.71 1015.95 1016.14 1016.26 1016.30 1016.28 1016.22 1016.17 1016.13 1016.15 1016.22 1016.33 1016.46 1016.58 1016.66 1016.65 1016.56 1016.38 1016.12 1015.80 1015.44 1015.08 1014.72 1014.40 1014.10 1013.82 1013.56 1013.31 1013.06 1012.83 1012.60 1012.41
1013.55 1013.70 1013.85 1014.00 1014.12 1014.25 1014.39 1014.56 1014.78 1015.05 1015.34 1015.65 1015.93 1016.15 1016.30 1016.36 1016.36 1016.31 1016.24 1016.18 1016.16 1016.17 1016.22 1016.29 1016.35 1016.37 1016.33 1016.21 1016.01 1015.74 1015.42 1015.08 1014.75 1014.43 1014.15 1013.89 1013.65 1013.43 1013.21 1012.98 1012.75 1012.53 1012.32
1012.92 1013.17 1013.42 1013.65 1013.85 1014.04 1014.21 1014.41 1014.64 1014.91 1015.21 1015.52 1015.81 1016.05 1016.22 1016.31 1016.32 1016.28 1016.20 1016.12 1016.06 1016.02 1016.02 1016.03 1016.04 1016.01 1015.93 1015.78 1015.57 1015.30 1015.00 1014.68 1014.38 1014.10 1013.85 1013.63 1013.43 1013.24 1013.05 1012.85 1012.64 1012.43 1012.23
1012.33 1012.67 1013.02 1013.34 1013.62 1013.86 1014.07 1014.28 1014.51 1014.76 1015.05 1015.34 1015.62 1015.86 1016.04 1016.13 1016.15 1016.11 1016.03 1015.92 1015.83 1015.76 1015.71 1015.67 1015.63 1015.56 1015.46 1015.30 1015.08 1014.82 1014.54 1014.25 1013.97 1013.72 1013.50 1013.31 1013.15 1012.99 1012.83 1012.66 1012.48 1012.29 1012.11
1011.84 1012.27 1012.70 1013.10 1013.45 1013.73 1013.97 1014.19 1014.40 1014.63 1014.87 1015.13 1015.38 1015.59 1015.75 1015.84 1015.85 1015.80 1015.71 1015.60 1015.48 1015.38 1015.30 1015.23 1015.16 1015.07 1014.95 1014.79 1014.58 1014.34 1014.07 1013.80 1013.54 1013.32 1013.12 1012.96 1012.82 1012.69 1012.56 1012.43 1012.28 1012.12 1011.97
1011.49 1011.98 1012.48 1012.95 1013.35 1013.67 1013.92 1014.13 1014.32 1014.51 1014.71 1014.91 1015.10 1015.27 1015.40 1015.46 1015.46 1015.40 1015.29 1015.17 1015.04 1014.93 1014.83 1014.74 1014.66 1014.57 1014.45 1014.29 1014.09 1013.86 1013.61 1013.36 1013.11 1012.90 1012.72 1012.57 1012.45 1012.35 1012.25 1012.15 1012.04 1011.92 1011.80
1011.26 1011.80 1012.36 1012.86 1013.30 1013.64 1013.90 1014.10 1014.25 1014.40 1014.54 1014.69 1014.82 1014.94 1015.01 1015.04 1015.01 1014.94 1014.83 1014.70 1014.57 1014.45 1014.35 1014.27 1014.18 1014.09 1013.98 1013.83 1013.65 1013.43 1013.18 1012.93 1012.69 1012.48 1012.30 1012.16 1012.05 1011.97 1011.90 1011.84 1011.77 1011.69 1011.60
1011.13 1011.70 1012.27 1012.79 1013.24 1013.59 1013.85 1014.04 1014.17 1014.28 1014.37 1014.46 1014.54 1014.60 1014.63 1014.62 1014.57 1014.48 1014.37 1014.24 1014.11 1014.00 1013.91 1013.83 1013.76 1013.68 1013.57 1013.43 1013.25 1013.03 1012.78 1012.52 1012.27 1012.05 1011.87 1011.73 1011.64 1011.58 1011.54 1011.51 1011.48 1011.43 1011.37
1011.05 1011.61 1012.17 1012.69 1013.13 1013.48 1013.73 1013.91 1014.02 1014.10 1014.17 1014.22 1014.25 1014.27 1014.27 1014.23 1014.16 1014.06 1013.94 1013.82 1013.71 1013.61 1013.53 1013.46 1013.40 1013.32 1013.21 1013.07 1012.87 1012.64 1012.38 1012.11 1011.85 1011.61 1011.42 1011.28 1011.20 1011.16 1011.15 1011.15 1011.16 1011.14 1011.11
1010.95 1011.48 1012.01 1012.50 1012.92 1013.25 1013.50 1013.67 1013.79 1013.86 1013.91 1013.94 1013.96 1013.96 1013.93 1013.87 1013.79 1013.69 1013.57 1013.46 1013.35 1013.26 1013.19 1013.13 1013.07 1012.99 1012.87 1012.71 1012.50 1012.25 1011.96 1011.67 1011.39 1011.14 1010.94 1010.81 1010.73 1010.71 1010.73 1010.77 1010.80 1010.82 1010.81
1010.79 1011.28 1011.76 1012.21 1012.59 1012.91 1013.15 1013.33 1013.46 1013.54 1013.60 1013.63 1013.65 1013.64 1013.60 1013.54 1013.45 1013.35 1013.23 1013.12 1013.02 1012.94 1012.87 1012.81 1012.73 1012.64 1012.50 1012.32 1012.08 1011.80 1011.50 1011.18 1010.89 1010.63 1010.43 1010.31 1010.25 1010.25 1010.29 1010.36 1010.42 1010.46 1010.46
1010.56 1010.99 1011.41 1011.81 1012.17 1012.47 1012.71 1012.91 1013.05 1013.16 1013.25 1013.30 1013.32 1013.32 1013.29 1013.22 1013.13 1013.02 1012.90 1012.79 1012.69 1012.59 1012.51 1012.43 1012.34 1012.22 1012.06 1011.85 1011.59 1011.29 1010.97 1010.64 1010.34 1010.08 1009.90 1009.78 1009.74 1009.77 1009.83 1009.92 1010.00 1010.05 1010.06
1010.24 1010.61 1010.99 1011.35 1011.68 1011.98 1012.23 1012.44 1012.62 1012.77 1012.88 1012.96 1013.00 1013.01 1012.97 1012.90 1012.80 1012.68 1012.55 1012.42 1012.30 1012.19 1012.08 1011.98 1011.86 1011.72 1011.53 1011.30 1011.03 1010.71 1010.38 1010.06 1009.76 1009.52 1009.35 1009.26 1009.24 1009.28 1009.37 1009.47 1009.55 1009.61 1009.62
1009.84 1010.18 1010.52 1010.86 1011.18 1011.48 1011.75 1012.00 1012.21 1012.40 1012.54 1012.65 1012.71 1012.71 1012.67 1012.59 1012.46 1012.31 1012.15 1011.99 1011.84 1011.69 1011.56 1011.43 1011.29 1011.12 1010.92 1010.68 1010.40 1010.10 1009.78 1009.47 1009.19 1008.98 1008.83 1008.76 1008.75 1008.81 1008.90 1009.01 1009.09 1009.14 1009.14
1009.38 1009.70 1010.04 1010.38 1010.71 1011.03 1011.33 1011.61 1011.87 1012.08 1012.26 1012.38 1012.44 1012.44 1012.38 1012.26 1012.10 1011.91 1011.70 1011.50 1011.30 1011.12 1010.96 1010.80 1010.64 1010.46 1010.26 1010.03 1009.77 1009.49 1009.20 1008.92 1008.68 1008.49 1008.37 1008.31 1008.32 1008.38 1008.46 1008.55 1008.62 1008.65 1008.63
1008.87 1009.21 1009.56 1009.91 1010.27 1010.62 1010.97 1011.29 1011.58 1011.83 1012.02 1012.15 1012.20 1012.18 1012.08 1011.92 1011.71 1011.47 1011.21 1010.95 1010.72 1010.50 1010.31 1010.14 1009.97 1009.80 1009.62 1009.42 1009.20 1008.95 1008.71 1008.47 1008.26 1008.10 1007.99 1007.93 1007.94 1007.98 1008.04 1008.10 1008.14 1008.15 1008.11
1008.34 1008.70 1009.07 1009.46 1009.86 1010.26 1010.65 1011.01 1011.34 1011.61 1011.81 1011.93 1011.97 1011.91 1011.77 1011.56 1011.29 1010.99 1010.68 1010.38 1010.11 1009.87 1009.66 1009.49 1009.34 1009.20 1009.05 1008.89 1008.72 1008.53 1008.32 1008.13 1007.94 1007.79 1007.69 1007.62 1007.60 1007.61 1007.63 1007.66 1007.66 1007.64 1007.57
1007.79 1008.17 1008.58 1009.01 1009.45 1009.89 1010.32 1010.72 1011.08 1011.36 1011.57 1011.67 1011.68 1011.59 1011.41 1011.15 1010.84 1010.49 1010.14 1009.81 1009.51 1009.26 1009.05 1008.90 1008.78 1008.68 1008.58 1008.48 1008.35 1008.21 1008.05 1007.88 1007.71 1007.56 1007.43 1007.34 1007.27 1007.24 1007.21 1007.19 1007.16 1007.11 1007.02
1007.26 1007.65 1008.08 1008.54 1009.01 1009.49 1009.95 1010.37 1010.74 1011.03 1011.23 1011.32 1011.31 1011.19 1010.97 1010.68 1010.33 1009.95 1009.58 1009.23 1008.93 1008.69 1008.51 1008.39 1008.31 1008.25 1008.21 1008.15 1008.08 1007.98 1007.84 1007.68 1007.51 1007.34 1007.17 1007.03 1006.91 1006.81 1006.74 1006.68 1006.61 1006.54 1006.45
1006.78 1007.16 1007.58 1008.04 1008.53 1009.01 1009.48 1009.91 1010.28 1010.57 1010.76 1010.84 1010.81 1010.67 1010.43 1010.12 1009.76 1009.38 1009.01 1008.67 1008.39 1008.17 1008.02 1007.93 1007.89 1007.89 1007.89 1007.87 1007.83 1007.75 1007.62 1007.46 1007.26 1007.05 1006.83 1006.63 1006.45 1006.29 1006.17 1006.08 1006.00 1005.92 1005.85
1006.40 1006.74 1007.13 1007.56 1008.02 1008.48 1008.93 1009.35 1009.69 1009.96 1010.13 1010.20 1010.16 1010.01 1009.78 1009.47 1009.12 1008.76 1008.41 1008.10 1007.85 1007.67 1007.55 1007.50 1007.50 1007.52 1007.55 1007.56 1007.52 1007.44 1007.30 1007.11 1006.87 1006.60 1006.33 1006.07 1005.83 1005.63 1005.48 1005.36 1005.29 1005.23 1005.19
1006.20 1006.45 1006.77 1007.14 1007.53 1007.94 1008.33 1008.69 1009.00 1009.23 1009.38 1009.43 1009.38 1009.24 1009.02 1008.74 1008.42 1008.10 1007.79 1007.52 1007.31 1007.16 1007.07 1007.04 1007.06 1007.09 1007.12 1007.12 1007.07 1006.96 1006.79 1006.55 1006.26 1005.95 1005.62 1005.31 1005.03 1004.81 1004.64 1004.53 1004.48 1004.46 1004.48
Thickness
5744 5744 5743 5742 5740 5738 5735 5732 5730 5727 5723 5722 5719 5716 5714 5712 5709 5706 5701 5699 5697 5695 5693 5694 5692 5690 5692 5691 5691 5691 5691 5692 5694 5694 5698 5704 5709 5712 5712 5713 5716 5718 5719
5738 5738 5738 5738 5736 5734 5731 5729 5726 5724 5720 5717 5714 5711 5708 5707 5705 5701 5695 5693 5690 5688 5689 5685 5686 5686 5684 5683 5683 5682 5683 5686 5688 5686 5687 5691 5699 5703 5709 5708 5710 5712 5714
5737 5736 5735 5735 5734 5732 5729 5728 5723 5719 5715 5712 5710 5706 5702 5700 5699 5695 5692 5688 5684 5682 5680 5679 5679 5678 5678 5680 5677 5675 5675 5676 5680 5682 5679 5679 5684 5690 5698 5700 5702 5703 5705
5740 5739 5736 5735 5733 5732 5729 5725 5720 5715 5711 5708 5706 5702 5697 5694 5692 5688 5687 5683 5679 5677 5675 5673 5672 5671 5672 5672 5670 5674 5671 5668 5671 5675 5675 5675 5676 5673 5680 5689 5695 5697 5698
5743 5741 5739 5737 5736 5733 5729 5724 5718 5713 5709 5705 5701 5696 5694 5692 5690 5685 5681 5677 5677 5673 5670 5668 5666 5665 5665 5665 5662 5661 5661 5663 5663 5666 5668 5669 5669 5670 5669 5674 5680 5687 5693
5745 5743 5742 5740 5736 5733 5728 5724 5717 5711 5706 5702 5698 5693 5689 5685 5681 5678 5677 5675 5674 5671 5669 5664 5661 5660 5659 5658 5655 5655 5655 5654 5655 5655 5659 5661 5661 5664 5666 5667 5670 5675 5684
5747 5744 5741 5738 5735 5731 5727 5722 5715 5708 5704 5699 5694 5690 5685 5681 5677 5674 5674 5669 5669 5668 5665 5661 5656 5655 5653 5650 5649 5648 5647 5647 5646 5646 5649 5653 5655 5657 5658 5659 5664 5667 5674
5748 5745 5742 5738 5734 5730 5725 5719 5713 5707 5702 5697 5691 5687 5682 5680 5678 5673 5668 5666 5664 5663 5658 5654 5651 5648 5646 5645 5643 5642 5642 5640 5639 5639 5640 5641 5645 5649 5650 5651 5654 5657 5664
5749 5745 5742 5738 5733 5728 5722 5717 5709 5703 5699 5694 5688 5684 5679 5675 5672 5667 5664 5664 5660 5657 5654 5649 5646 5643 5641 5638 5636 5636 5634 5633 5632 5633 5633 5633 5638 5639 5642 5644 5646 5646 5650
5749 5744 5740 5735 5730 5725 5719 5713 5707 5700 5696 5691 5686 5683 5677 5673 5668 5665 5661 5657 5653 5650 5647 5644 5641 5639 5636 5633 5630 5629 5629 5626 5624 5623 5623 5623 5627 5631 5633 5635 5639 5641 5643
5749 5743 5738 5733 5727 5722 5716 5709 5703 5697 5692 5688 5683 5677 5674 5670 5666 5662 5658 5654 5650 5645 5642 5639 5636 5633 5631 5628 5625 5623 5621 5619 5618 5617 5617 5617 5617 5620 5624 5627 5630 5634 5637
5749 5742 5736 5729 5723 5718 5713 5707 5701 5696 5690 5686 5680 5675 5670 5666 5662 5659 5654 5650 5645 5641 5638 5634 5631 5628 5625 5622 5619 5616 5615 5613 5611 5610 5610 5609 5611 5611 5612 5616 5620 5625 5629
5744 5738 5732 5725 5720 5715 5710 5705 5699 5694 5689 5684 5678 5672 5668 5663 5659 5654 5650 5646 5641 5637 5633 5629 5626 5622 5619 5616 5613 5610 5607 5606 5604 5603 5602 5602 5602 5602 5605 5607 5611 5616 5622
5739 5735 5728 5723 5718 5713 5707 5701 5696 5692 5686 5680 5675 5670 5665 5660 5655 5651 5646 5641 5637 5632 5628 5624 5620 5616 5613 5609 5606 5603 5600 5598 5597 5595 5594 5594 5594 5594 5595 5598 5601 5605 5610
5736 5731 5727 5722 5715 5710 5703 5698 5693 5688 5682 5676 5672 5667 5662 5657 5651 5646 5642 5637 5632 5628 5623 5619 5614 5610 5607 5605 5601 5595 5593 5590 5588 5587 5586 5586 5586 5585 5585 5589 5594 5597 5600
5736 5732 5726 5720 5713 5707 5701 5696 5690 5684 5679 5672 5668 5664 5658 5653 5648 5643 5638 5632 5627 5623 5617 5613 5608 5604 5602 5597 5588 5582 5581 5581 5579 5579 5578 5578 5577 5577 5575 5575 5577 5580 5587
5737 5731 5726 5719 5712 5707 5700 5693 5687 5682 5675 5669 5664 5660 5655 5649 5644 5639 5634 5628 5623 5617 5612 5607 5602 5598 5594 5586 5579 5572 5569 5571 5571 5571 5570 5570 5574 5571 5571 5570 5569 5571 5574
5736 5731 5725 5719 5713 5706 5699 5691 5686 5679 5672 5667 5662 5657 5651 5645 5640 5634 5628 5623 5617 5611 5606 5601 5596 5591 5587 5579 5572 5565 5563 5564 5565 5563 5562 5561 5561 5561 5561 5562 5566 5569 5573
5737 5731 5725 5720 5711 5703 5696 5688 5681 5676 5670 5664 5659 5654 5648 5641 5635 5629 5623 5617 5611 5606 5601 5596 5591 5585 5580 5573 5565 5556 5559 5561 5560 5558 5556 5553 5552 5550 5547 5548 5553 5558 5564
5735 5728 5722 5715 5706 5699 5693 5683 5678 5673 5667 5662 5656 5650 5643 5637 5630 5625 5618 5613 5606 5601 5595 5591 5585 5580 5575 5568 5559 5550 5553 5555 5554 5552 5549 5545 5541 5539 5536 5538 5542 5547 5554
5731 5725 5717 5709 5702 5696 5687 5679 5674 5669 5664 5659 5652 5645 5639 5632 5626 5620 5614 5608 5602 5596 5590 5585 5580 5576 5570 5564 5555 5547 5545 5547 5547 5545 5544 5542 5535 5529 5525 5525 5531 5537 5540
5727 5721 5711 5704 5698 5691 5682 5675 5670 5666 5660 5653 5647 5641 5634 5629 5624 5616 5609 5603 5597 5591 5587 5582 5577 5573 5568 5560 5554 5544 5538 5534 5536 5537 5537 5534 5526 5521 5518 5518 5522 5524 5526
5724 5717 5709 5700 5694 5686 5678 5670 5666 5661 5655 5648 5642 5636 5630 5624 5618 5611 5605 5599 5594 5589 5585 5580 5574 5570 5566 5559 5549 5541 5535 5530 5529 5533 5530 5523 5518 5515 5515 5514 5514 5515 5522
5719 5712 5703 5695 5688 5682 5675 5668 5662 5656 5648 5642 5636 5631 5625 5620 5615 5607 5602 5597 5591 5586 5581 5576 5571 5566 5561 5556 5550 5544 5538 5531 5528 5528 5526 5519 5515 5512 5512 5514 5514 5516 5523
5712 5705 5697 5690 5684 5678 5670 5664 5657 5649 5642 5637 5631 5626 5622 5617 5609 5604 5598 5592 5587 5581 5572 5570 5566 5561 5557 5551 5538 5533 5533 5531 5528 5522 5523 5523 5523 5520 5518 5517 5517 5518 5522
5703 5697 5690 5683 5678 5671 5664 5658 5651 5643 5636 5631 5626 5622 5618 5613 5607 5602 5597 5591 5582 5575 5567 5559 5553 5553 5547 5539 5533 5527 5522 5518 5514 5513 5521 5523 5523 5521 5519 5518 5518 5519 5521